This demonstration page uses our WeatherBlox Daily Observations layout. Learn more.

Left ArrowRight Arrow

40.92945, -100.16068

Hourly Observations for July 21, 2019

Temp ( °F °C ) Dew Point ( °F °C ) Humidity (%) Winds ( mph kmh ) Pressure ( in mb ) Visibility ( mi km ) Precip ( " mm )
12:15 am 00:15 Cloudy 70 21 64 17.7 82 82 NE 18 30 29.88 1012 10 16 N/A
12:35 am 00:35 Cloudy 70 21 64 17.6 81 81 NE 18 30 29.87 1012 10 16 N/A
12:55 am 00:55 Cloudy 70 21 64 17.6 81 81 NE 17 28 29.89 1012 10 16 N/A
1:15 am 01:15 Cloudy with Nearby Thunderstorms 69 20.7 64 17.7 83 83 ENE 12 19 29.89 1012 10 16 N/A
1:35 am 01:35 Cloudy 69 20.5 64 17.8 85 85 NE 13 20 29.90 1012 10 16 N/A
1:55 am 01:55 Cloudy with Nearby Thunderstorms 69 20.4 64 18 86 86 ENE 15 24 29.89 1012 10 16 N/A
2:15 am 02:15 Cloudy with Nearby Thunderstorms 68 20.1 64 18 88 88 ENE 12 19 29.89 1012 10 16 N/A
2:35 am 02:35 Cloudy 68 20 65 18.1 89 89 ENE 9 15 29.88 1012 10 16 N/A
2:55 am 02:55 Cloudy with Light Rain 67 19.3 65 18.2 93 93 ENE 9 15 29.88 1012 10 16 0.01 0.25
3:15 am 03:15 Cloudy with Light Rain 66 19.1 65 18.2 95 95 ENE 15 24 29.87 1012 7 11 0.01 0.25
3:35 am 03:35 Cloudy 66 19 65 18.3 96 96 WNW 17 28 29.99 1016 3 5 0.09 2.29
3:55 am 03:55 Cloudy with Strong Thunderstorms 63 17.2 63 17.2 100 100 NNW 14 22 30.03 1017 1 1 0.76 19.30
4:15 am 04:15 Cloudy with Strong Thunderstorms 65 18.1 64 17.6 97 97 N 10 17 29.99 1016 3 4 0.16 4.06
4:35 am 04:35 Cloudy with Light Rain 64 17.6 64 17.5 99 99 N 8 13 29.99 1016 10 16 0.21 5.33
4:55 am 04:55 Cloudy with Light Rain 64 17.7 64 17.6 99 99 NNE 8 13 29.96 1015 10 16 0.24 6.10
5:15 am 05:15 Mostly Cloudy 64 18 64 17.7 98 98 NNE 8 13 29.94 1014 10 16 0.01 0.25
5:35 am 05:35 Mostly Cloudy with Thunderstorms 64 18 64 17.6 98 98 ENE 7 11 29.96 1015 10 16 0.02 0.51
5:55 am 05:55 Partly Cloudy 64 17.9 64 17.6 98 98 ENE 9 15 29.95 1014 10 16 0.02 0.51
6:15 am 06:15 Clear 64 17.7 64 17.5 99 99 ENE 13 20 29.93 1014 10 16 N/A
6:35 am 06:35 Partly Cloudy 64 17.8 64 17.6 99 99 NE 14 22 29.90 1013 10 16 N/A
6:55 am 06:55 Mostly Cloudy 64 18 64 17.6 98 98 NE 10 17 29.90 1013 10 16 N/A
7:15 am 07:15 Mostly Cloudy 64 18 64 17.6 98 98 NE 13 20 29.89 1012 10 16 N/A
7:35 am 07:35 Mostly Cloudy 65 18.1 64 17.8 98 98 ENE 10 17 29.90 1012 10 16 N/A
7:55 am 07:55 Cloudy 65 18.3 64 17.8 97 97 E 8 13 29.92 1013 10 16 N/A
8:15 am 08:15 Cloudy 65 18.5 64 18 97 97 E 7 11 29.94 1014 10 16 N/A
8:35 am 08:35 Cloudy 66 18.7 65 18.1 96 96 S 8 13 29.96 1015 10 16 N/A
8:55 am 08:55 Cloudy 66 18.7 64 18 96 96 SSE 6 9 29.96 1015 10 16 N/A
9:15 am 09:15 Cloudy with Rain 66 18.7 65 18.2 97 97 SW 12 19 30.02 1017 10 16 N/A
9:35 am 09:35 Cloudy with Rain 66 18.8 65 18.5 98 98 W 5 7 30.05 1018 5 8 0.04 1.02
9:55 am 09:55 Cloudy with Rain 66 18.7 65 18.5 99 99 WSW 3 6 30.06 1018 5 8 0.09 2.29
10:15 am 10:15 Cloudy with Rain 66 19 66 18.7 98 98 N N/A 30.06 1018 5 8 0.03 0.76
10:35 am 10:35 Cloudy with Light Rain 66 19.1 66 18.8 98 98 W 3 6 30.06 1018 10 16 0.05 1.27
10:55 am 10:55 Cloudy with Rain 67 19.5 66 19 97 97 W 3 6 30.06 1018 10 16 0.07 1.78
11:15 am 11:15 Cloudy with Drizzle 67 19.7 66 19.1 96 96 W 3 6 30.04 1017 10 16 N/A
11:35 am 11:35 Cloudy with Light Rain 68 20.1 66 18.9 93 93 S 3 6 30.03 1017 10 16 N/A
11:55 am 11:55 Mostly Cloudy with Light Rain 69 20.4 66 19.1 92 92 SE 5 7 30.02 1017 10 16 N/A
12:15 pm 12:15 Cloudy with Light Rain 69 20.6 66 19 91 91 ESE 6 9 30.02 1016 10 16 N/A
12:35 pm 12:35 Cloudy 69 20.7 65 18.6 88 88 SSE 3 6 30.03 1017 10 16 N/A
12:55 pm 12:55 Cloudy with Drizzle 70 21.1 65 18.5 85 85 N N/A 30.04 1017 10 16 N/A
1:15 pm 13:15 Cloudy 71 21.5 66 18.7 84 84 ESE 8 13 30.04 1017 10 16 N/A
1:35 pm 13:35 Cloudy 71 21.5 65 18.5 83 83 N N/A 30.05 1018 10 16 N/A
1:55 pm 13:55 Mostly Cloudy 73 22.6 66 18.8 79 79 E 6 9 30.02 1017 10 16 N/A
2:15 pm 14:15 Mostly Cloudy 72 22 64 17.8 77 77 E 7 11 30.02 1017 10 16 N/A
2:35 pm 14:35 Cloudy 73 22.9 65 18.1 74 74 ESE 6 9 30.02 1016 10 16 N/A
2:55 pm 14:55 Cloudy 72 22.3 65 18.4 79 79 N N/A 30.02 1017 10 16 N/A
3:15 pm 15:15 Partly Cloudy 74 23.4 66 18.8 75 75 N N/A 30.01 1016 10 16 N/A
3:35 pm 15:35 Partly Cloudy 74 23.3 64 18 72 72 N 5 7 30.01 1016 10 16 N/A
3:55 pm 15:55 Mostly Cloudy 74 23.3 66 19 77 77 NE 6 9 30.01 1016 10 16 N/A
4:15 pm 16:15 Partly Cloudy 75 24 65 18.6 72 72 ENE 5 7 30.01 1016 10 16 N/A
4:35 pm 16:35 Partly Cloudy 76 24.6 66 18.7 70 70 N 3 6 30.00 1016 10 16 N/A
4:55 pm 16:55 Mostly Cloudy 77 24.8 66 18.8 69 69 N 7 11 30.01 1016 10 16 N/A
5:15 pm 17:15 Mostly Cloudy 75 24.1 66 18.7 72 72 NNE 6 9 30.02 1016 10 16 N/A
5:35 pm 17:35 Mostly Cloudy 76 24.3 65 18.6 71 71 NNE 7 11 30.02 1016 10 16 N/A
5:55 pm 17:55 Partly Cloudy 77 25 66 18.7 68 68 N 7 11 30.01 1016 10 16 N/A
6:15 pm 18:15 Sunny 77 25.2 67 19.5 71 71 NE 7 11 30.01 1016 10 16 N/A
6:35 pm 18:35 Partly Cloudy 77 25 66 19.1 70 70 N 7 11 30.00 1016 10 16 N/A
6:55 pm 18:55 Mostly Cloudy 77 25.2 67 19.4 70 70 N 7 11 30.01 1016 10 16 N/A
7:15 pm 19:15 Cloudy 74 23.5 68 19.8 80 80 NNE 8 13 30.03 1017 10 16 N/A
7:35 pm 19:35 Cloudy with Rain 73 22.5 69 20.4 88 88 NE 8 13 30.04 1017 10 16 N/A
7:55 pm 19:55 Cloudy with Heavy Rain 71 21.6 69 20.6 94 94 NNE 9 15 30.07 1018 4 6 0.06 1.52
8:15 pm 20:15 Cloudy 70 21 68 20 94 94 NNE 12 19 30.07 1018 10 16 0.02 0.51
8:35 pm 20:35 Cloudy 69 20.6 67 19.5 93 93 NE 9 15 30.09 1019 10 16 0.02 0.51
8:55 pm 20:55 Cloudy 69 20.5 66 19 91 91 NE 10 17 30.10 1019 10 16 0.02 0.51
9:15 pm 21:15 Cloudy 68 20 65 18.5 91 91 NE 10 17 30.11 1020 10 16 N/A
9:35 pm 21:35 Cloudy 68 19.9 65 18.5 92 92 NE 8 13 30.12 1020 10 16 N/A
9:55 pm 21:55 Cloudy 67 19.5 63 17.4 88 88 ENE 15 24 30.14 1021 10 16 N/A
10:15 pm 22:15 Cloudy 67 19.3 60 15.8 80 80 NE 13 20 30.15 1021 10 16 N/A
10:35 pm 22:35 Cloudy 66 18.9 58 14.5 76 76 NE 13 20 30.16 1021 10 16 N/A
10:55 pm 22:55 Cloudy 66 18.7 57 14 74 74 NE 9 15 30.16 1021 10 16 N/A
11:15 pm 23:15 Cloudy 66 18.7 56 13.5 72 72 NE 10 17 30.16 1021 10 16 N/A
11:35 pm 23:35 Cloudy 65 18.5 57 13.7 74 74 NE 10 17 30.17 1022 10 16 N/A
11:55 pm 23:55 Cloudy 65 18.2 57 14.1 77 77 NE 6 9 30.19 1022 10 16 N/A

Powered by AerisWeather